User: anonymous
Location: Caltech
(34.1382°N, 118.1253°W)
Time: 04:49:24
(UTC-07:00)
Language:

GPS 2-04 Rocket1 - Orbit

View from above orbital plane
View from above orbital plane
View from above satellite
View from above satellite

Ground track
Ground track

The orbit data is extracted from the following two-line orbital elements,

1 20303U 89085B   14271.94832318  .00014961  00000-0  70336-3 0  8858
2 20303 035.6323 074.9683 0137171 098.9100 039.0990 15.10791043349586
Epoch (UTC): 28 September 2014 22:45:35
Eccentricity: 0.0137171
inclination: 35.6323°
perigee height: 439 km
apogee height: 628 km
right ascension of ascending node: 74.9683°
argument of perigee: 98.9100°
revolutions per day: 15.10791043
mean anomaly at epoch: 39.0990°
orbit number at epoch: 34958

The dashed part of the orbit path shows where the satellite is in the earth's shadow,  

DLR